| time (UTC) | temp C | wind direction | speed KPH | gust KPH | rain 1hr cm | rain 24hr cm | rain mn cm | humidity % | barometer mb |
| 20260510162008 | 13 | 43 | 8.0 | 11.3 | 0.00 | 0.00 | 0.00 | 51 | 1015.0 |
| 20260510155008 | 12 | 126 | 11.3 | 11.3 | 0.00 | 0.00 | 0.00 | 54 | 1015.4 |
| 20260510152008 | 12 | 223 | 1.6 | 12.9 | 0.00 | 0.00 | 0.00 | 56 | 1015.9 |
| 20260510145008 | 12 | 16 | 4.8 | 8.0 | 0.00 | 0.00 | 0.00 | 56 | 1016.0 |
| 20260510142009 | 12 | 156 | 4.8 | 6.4 | 0.00 | 0.00 | 0.00 | 60 | 1016.2 |
| 20260510135008 | 12 | 32 | 4.8 | 9.7 | 0.00 | 0.00 | 0.00 | 60 | 1016.4 |
| 20260510132008 | 12 | 320 | 4.8 | 11.3 | 0.00 | 0.00 | 0.00 | 62 | 1016.5 |
| 20260510125009 | 12 | 264 | 9.7 | 9.7 | 0.00 | 0.00 | 0.00 | 62 | 1016.6 |
| 20260510122008 | 12 | 178 | 3.2 | 6.4 | 0.00 | 0.00 | 0.00 | 66 | 1017.1 |
| 20260510115008 | 12 | 26 | 6.4 | 9.7 | 0.00 | 0.00 | 0.00 | 63 | 1017.1 |
| 20260510112008 | 14 | 128 | 6.4 | 8.0 | 0.00 | 0.00 | 0.00 | 57 | 1017.1 |
| 20260510105008 | 14 | 150 | 6.4 | 11.3 | 0.00 | 0.00 | 0.00 | 58 | 1017.5 |
| 20260510102008 | 13 | 187 | 1.6 | 6.4 | 0.00 | 0.00 | 0.00 | 62 | 1017.4 |
| 20260510095008 | 13 | 237 | 3.2 | 12.9 | 0.00 | 0.00 | 0.00 | 61 | 1017.3 |
| 20260510092008 | 12 | 102 | 6.4 | 14.5 | 0.00 | 0.00 | 0.00 | 65 | 1017.8 |
| 20260510082010 | 11 | 104 | 3.2 | 8.0 | 0.00 | 0.00 | 0.00 | 70 | 1018.1 |
| 20260510075008 | 10 | 66 | 3.2 | 14.5 | 0.00 | 0.00 | 0.00 | 73 | 1018.0 |
| 20260510072008 | 10 | 181 | 6.4 | 8.0 | 0.00 | 0.00 | 0.00 | 75 | 1018.2 |
| 20260510065008 | 10 | 179 | 3.2 | 9.7 | 0.00 | 0.00 | 0.00 | 77 | 1018.0 |
| 20260510062008 | 10 | 206 | 3.2 | 9.7 | 0.00 | 0.00 | 0.00 | 79 | 1018.0 |
| 20260510055008 | 9 | 292 | 4.8 | 8.0 | 0.00 | 0.00 | 0.00 | 79 | 1017.8 |
| 20260510052008 | 9 | 26 | 8.0 | 12.9 | 0.00 | 0.00 | 0.00 | 80 | 1017.8 |
| 20260510045009 | 9 | 321 | 0.0 | 8.0 | 0.00 | 0.00 | 0.00 | 81 | 1018.0 |
| 20260510042008 | 9 | 243 | 0.0 | 4.8 | 0.00 | 0.00 | 0.00 | 80 | 1017.9 |
| 20260510035008 | 9 | 246 | 3.2 | 9.7 | 0.00 | 0.00 | 0.00 | 81 | 1018.2 |
| 20260510032008 | 9 | 7 | 11.3 | 11.3 | 0.00 | 0.00 | 0.00 | 80 | 1018.0 |
| 20260510022009 | 9 | 321 | 3.2 | 8.0 | 0.00 | 0.00 | 0.00 | 82 | 1018.2 |
| 20260510015008 | 9 | 6 | 4.8 | 6.4 | 0.00 | 0.00 | 0.00 | 82 | 1018.2 |
| 20260510012009 | 9 | 38 | 1.6 | 6.4 | 0.00 | 0.00 | 0.00 | 79 | 1018.5 |
| 20260510005008 | 10 | 38 | 4.8 | 6.4 | 0.00 | 0.00 | 0.00 | 74 | 1018.2 |
| 20260510002008 | 10 | 70 | 0.0 | 9.7 | 0.00 | 0.00 | 0.00 | 63 | 1018.4 |
| 20260509232008 | 12 | 237 | 3.2 | 6.4 | 0.00 | 0.00 | 0.00 | 53 | 1018.0 |
| 20260509225008 | 12 | 112 | 1.6 | 4.8 | 0.00 | 0.00 | 0.00 | 51 | 1017.8 |
| 20260509222008 | 12 | 321 | 0.0 | 6.4 | 0.00 | 0.00 | 0.00 | 49 | 1017.7 |
| 20260509215009 | 13 | 130 | 0.0 | 6.4 | 0.00 | 0.00 | 0.00 | 49 | 1017.9 |
| 20260509212009 | 13 | 89 | 0.0 | 1.6 | 0.00 | 0.00 | 0.00 | 51 | 1017.6 |
| 20260509205008 | 15 | 242 | 0.0 | 0.0 | 0.00 | 0.00 | 0.00 | 47 | 1017.2 |
| 20260509195009 | 16 | 89 | 0.0 | 3.2 | 0.00 | 0.00 | 0.00 | 43 | 1016.7 |
| 20260509192009 | 17 | 269 | 3.2 | 8.0 | 0.00 | 0.00 | 0.00 | 41 | 1016.7 |
| 20260509185009 | 17 | 82 | 1.6 | 6.4 | 0.00 | 0.00 | 0.00 | 40 | 1016.3 |
| 20260509182010 | 18 | 121 | 6.4 | 6.4 | 0.00 | 0.00 | 0.00 | 37 | 1016.0 |
| 20260509175009 | 20 | 142 | 1.6 | 8.0 | 0.00 | 0.00 | 0.00 | 37 | 1015.8 |
| 20260509172009 | 20 | 187 | 3.2 | 8.0 | 0.00 | 0.00 | 0.00 | 36 | 1015.6 |